Location: Anankanda
(14.7841°N, 3.0348°W)
Time: 06:05:01
(UTC+00:00)

Iridium 4 Rocket - Pass Details

Date: 17 January 2021
Orbit: 583 x 906 km, 86.9° (Epoch: 07 March)

Event Time Altitude Azimuth Distance (km) Brightness Sun altitude
Exits shadow 19:23:24 29° 40° (NE) 1,405 4.4 -19.1°
Maximum altitude 19:25:27 42° 88° (E) 1,087 3.8 -19.6°
Drops below altitude 10° 19:30:07 10° 159° (SSE) 2,212 5.8 -20.7°
Sets 19:32:25 0° 166° (SSE) 3,079 6.7 -21.2°
